Погода в Поселке Дзержинского

Россия / Санкт-Петербург и Ленинградская область     58°39′59″N   29°53′24″E
темп.,
°C
ветер,
м/с
пор.,
м/с
влажн.,
%
обл.,
%
осадки,
мм/ч
давл.,
гПа
погр.,
м
28 июля, ср
ср2800:00+20вюв2656100 0.0 101497
03:00+17юв2469100 0.0 101369
06:00+17ююв239090 0.4 101272
09:00+20юв2486100 1.1 1011235
12:00+23ю3567100 0.1 1010652
15:00+20ююв2686100 0.5 1010311
18:00+25ююз4561100 0.0 1007956
21:00+19юз2294100 1.4 100731
29 июля, чт
чт2900:00+18юз2396100 0.0 100655
03:00+16зюз279558 0.0 1006132
06:00+16зюз299384 0.0 1005191
09:00+19зюз3778100 0.0 1005339
12:00+25юз465021 0.6 10041413
15:00+25зюз4652100 0.6 10021520
18:00+23зюз376211 0.4 1002982
21:00+20зюз236812 0.4 100252
30 июля, пт
пт3000:00+17зюз297468 0.0 1003217
03:00+15зюз210935 0.2 1003247
06:00+15юз3109550 0.0 1003324
09:00+19юз58668 0.1 10021130
12:00+23юз694058 0.0 10022384
15:00+21юз494491 0.0 10012128
18:00+22юз4944100 0.0 10011846
21:00+17ююз4106739 0.1 1000518
31 июля, сб
сб3100:00+15ю4127135 0.1 998343
03:00+13юз51392100 1.4 998863
06:00+13юз5139280 0.2 997714
09:00+18з610680 0.3 9981201
12:00+20зюз6107319 0.4 10001290
15:00+23зюз696167 1.1 10001539
18:00+21зюз59768 0.6 1001912
21:00+17зюз2494100 2.3 100289
1 августа, вс
вс100:00+15ю2295100 0.0 100228
03:00+15ю21096100 0.1 1001215
06:00+15ююз41097100 0.4 1000383
09:00+18юз488115 0.6 1000835
12:00+23юз684868 0.0 10011925
15:00+22зюз695565 0.3 10011843
18:00+22з495159 0.1 10021621
21:00+18з410620 0.1 1004811